sat.trackr.live / text

‹ back to catalog

QIANFAN-200

NORAD 69418 · 2026-125T

PAYLOAD ACTIVE UNKNOWN

§ Identity

Operator
Country
PRC
Launch date
2026-06-05
Launch site
WSC
Launch vehicle
Mass (kg)
RCS (m²)

External: N2YO · Heavens-Above · Gunter

§ Orbital elements

Epoch: 2026-09-20T02:55:04.692576Z

Period
106.59 min
Inclination
88.9884°
Eccentricity
0.0002087
Mean motion
13.51026220 rev/d
Perigee alt
1,066.9 km
Apogee alt
1,070.0 km
Semi-major
7,446.6 km
B*
3.6023e-5
RAAN
270.3569°
Arg perigee
105.5752°
Mean anomaly
254.5630°
Rev number
1,476

§ Raw data

QIANFAN-2001 69418U 26125T   26263.12158209  .00000035  00000+0  36023-4 0  99962 69418  88.9884 270.3569 0002087 105.5752 254.5630 13.51026220 14764

JSON: /api/v1/satellites/69418 · /tle

For live sub-satellite position, see the globe view (requires WebGL).

§ Visibility from observer

Set your observer location to see the next 7 days of passes ≥ 10°. The values pass through the URL so the page stays shareable.

No JS? Fill the form by hand. The geolocation button needs JavaScript.